Change the Weather History Date:

Wednesday, August 14, 2013

  Actual Average (KEKA) Record (KEKA)
Temperature  
Mean Temperature 62 °F 59 °F  
Max Temperature 75 °F 64 °F 74 °F (2013)
Min Temperature 50 °F 53 °F 47 °F (1895)
Degree Days  
Heating Degree Days 2 6  
Month to date heating degree days 90  
Since 1 June heating degree days 582  
Since 1 July heating degree days 316  
Cooling Degree Days 0 0  
Month to date cooling degree days 0  
Year to date cooling degree days 0  
Since 1 June cooling degree days 0  
Growing Degree Days 12 (Base 50)    
Moisture  
Dew Point 56 °F    
Average Humidity 84    
Maximum Humidity 100    
Minimum Humidity 44    
Precipitation  
Precipitation 0.00 in 0.01 in 0.30 in (1976)
Month to date precipitation 0.09  
Year to date precipitation 23.55  
Since 1 July precipitation 0.27  
Snow  
Snow 0.00 in 0.00 in 0.00 in (2002)
Month to date snowfall 0.0  
Since 1 June snowfall 0.0  
Since 1 July snowfall 0.0  
Snow Depth -    
Sea Level Pressure  
Sea Level Pressure 30.02 in    
Wind  
Wind Speed 6 mph (WSW)    
Max Wind Speed 16 mph    
Max Gust Speed 21 mph    
Visibility 8 miles    
Events      
T = Trace of Precipitation, MM = Missing Value Source: NWS Daily Summary

Daily Weather History Graph

Daily Weather History Graph

Search for Another Location

Airport or City:

Trip Planner

Search our weather history database for the weather conditions in past years. The results will help you decide how hot, cold, wet, or windy it might be!

Date:

Astronomy

Aug. 14, 2013 Rise Set
Actual Time 6:26 AM PDT 8:15 PM PDT
Civil Twilight 5:57 AM PDT 8:44 PM PDT
Nautical Twilight 5:21 AM PDT 9:19 PM PDT
Astronomical Twilight 4:43 AM PDT 9:57 PM PDT
Moon 2:33 PM PDT (8/14) No Moon Set
Length of Visible Light 14h 47m
Length of Day
13h 48m
First Quarter, 54% of the Moon is Illuminated
Aug 14
First Quarter
Aug 20
Full
Aug 28
Last Quarter
Sep 5
New
Sep 12
First Quarter

Hourly Weather History & Observations

Time (PDT) Temp. Dew Point Humidity Pressure Visibility Wind Dir Wind Speed Gust Speed Precip Events Conditions
12:15 AM 51.8 °F 51.8 °F 100% 30.07 in 5.0 mi Calm Calm - N/A   Overcast
12:35 AM 53.6 °F 53.6 °F 100% 30.06 in 5.0 mi Calm Calm - N/A   Overcast
12:55 AM 53.6 °F 53.6 °F 100% 30.05 in 5.0 mi Calm Calm - N/A   Overcast
1:15 AM 53.6 °F 53.6 °F 100% 30.05 in 1.8 mi East 3.5 mph - N/A   Overcast
1:35 AM 53.6 °F 53.6 °F 100% 30.05 in 0.2 mi ESE 5.8 mph - N/A   Overcast
1:55 AM 51.8 °F 51.8 °F 100% 30.04 in 0.2 mi ESE 4.6 mph - N/A   Overcast
2:15 AM 51.8 °F 51.8 °F 100% 30.04 in 0.2 mi SE 3.5 mph - N/A   Overcast
2:35 AM 51.8 °F 51.8 °F 100% 30.03 in 0.2 mi SE 4.6 mph - N/A   Overcast
2:55 AM 51.8 °F 51.8 °F 100% 30.02 in 0.2 mi SE 6.9 mph - N/A   Overcast
3:15 AM 51.8 °F 51.8 °F 100% 30.02 in 0.2 mi SE 8.1 mph - N/A   Overcast
3:35 AM 50.0 °F 50.0 °F 100% 30.01 in 0.2 mi SE 8.1 mph - N/A   Overcast
3:55 AM 50.0 °F 50.0 °F 100% 30.01 in 0.5 mi SE 9.2 mph - N/A   Overcast
4:15 AM 50.0 °F 50.0 °F 100% 30.01 in 4.0 mi SE 8.1 mph - N/A   Partly Cloudy
4:35 AM 50.0 °F 50.0 °F 100% 30.01 in 4.0 mi SE 8.1 mph - N/A   Partly Cloudy
4:55 AM 50.0 °F 50.0 °F 100% 30.01 in 4.0 mi SE 8.1 mph - N/A   Clear
5:15 AM 50.0 °F 50.0 °F 100% 30.01 in 5.0 mi SE 10.4 mph - N/A   Clear
5:35 AM 50.0 °F 50.0 °F 100% 30.01 in 10.0 mi SE 8.1 mph - N/A   Clear
5:55 AM 50.0 °F 50.0 °F 100% 30.01 in 10.0 mi SE 8.1 mph - N/A   Clear
6:15 AM 50.0 °F 50.0 °F 100% 30.02 in 10.0 mi SE 9.2 mph - N/A   Clear
6:35 AM 50.0 °F 50.0 °F 100% 30.02 in 10.0 mi ESE 8.1 mph - N/A   Clear
6:55 AM 50.0 °F 48.2 °F 94% 30.04 in 9.0 mi NNE 3.5 mph - N/A   Clear
7:15 AM 50.0 °F 50.0 °F 100% 30.04 in 7.0 mi Calm Calm - N/A   Clear
7:35 AM 50.0 °F 50.0 °F 100% 30.05 in 1.0 mi Calm Calm - N/A   Clear
7:55 AM 51.8 °F 51.8 °F 100% 30.05 in 0.5 mi SSE 3.5 mph - N/A   Unknown
8:15 AM 51.8 °F 51.8 °F 100% 30.04 in 0.2 mi SSE 3.5 mph - N/A   Unknown
8:35 AM 53.6 °F 51.8 °F 94% 30.04 in 10.0 mi SE 5.8 mph - N/A   Clear
8:55 AM 55.4 °F 53.6 °F 94% 30.04 in 10.0 mi South 3.5 mph - N/A   Clear
9:15 AM 57.2 °F 53.6 °F 88% 30.04 in 10.0 mi SE 3.5 mph - N/A   Clear
9:35 AM 60.8 °F 53.6 °F 77% 30.03 in 10.0 mi SE 4.6 mph - N/A   Clear
9:55 AM 64.4 °F 53.6 °F 68% 30.03 in 10.0 mi SE 4.6 mph - N/A   Clear
10:15 AM 66.2 °F 53.6 °F 64% 30.03 in 10.0 mi Calm Calm - N/A   Clear
10:35 AM 68.0 °F 53.6 °F 60% 30.02 in 10.0 mi SSE 4.6 mph - N/A   Clear
10:55 AM 71.6 °F 51.8 °F 50% 30.03 in 10.0 mi South 3.5 mph - N/A   Clear
11:15 AM 73.4 °F 50.0 °F 44% 30.02 in 10.0 mi WNW 8.1 mph - N/A   Clear
11:35 AM 73.4 °F 50.0 °F 44% 30.03 in 10.0 mi NW 10.4 mph - N/A   Clear
11:55 AM 73.4 °F 53.6 °F 50% 30.02 in 10.0 mi NW 11.5 mph - N/A   Clear
12:55 PM 73.4 °F 59.0 °F 61% 30.03 in 10.0 mi NW 13.8 mph - N/A   Clear
1:15 PM 73.4 °F 60.8 °F 65% 30.03 in 10.0 mi NW 15.0 mph 19.6 mph N/A   Clear
1:35 PM 73.4 °F 62.6 °F 69% 30.03 in 10.0 mi WNW 13.8 mph 19.6 mph N/A   Clear
1:55 PM 73.4 °F 60.8 °F 65% 30.02 in 10.0 mi NW 13.8 mph - N/A   Clear
2:15 PM 75.2 °F 62.6 °F 65% 30.02 in 10.0 mi WNW 12.7 mph 18.4 mph N/A   Clear
2:35 PM 75.2 °F 62.6 °F 65% 30.02 in 10.0 mi WNW 15.0 mph - N/A   Clear
2:55 PM 75.2 °F 59.0 °F 57% 30.02 in 10.0 mi NW 13.8 mph - N/A   Clear
3:15 PM 75.2 °F 60.8 °F 61% 30.02 in 10.0 mi NW 16.1 mph - N/A   Clear
3:35 PM 75.2 °F 62.6 °F 65% 30.02 in 10.0 mi NW 15.0 mph - N/A   Clear
3:55 PM 73.4 °F 62.6 °F 69% 30.02 in 10.0 mi WNW 13.8 mph 20.7 mph N/A   Clear
4:15 PM 73.4 °F 62.6 °F 69% 30.02 in 10.0 mi NW 13.8 mph - N/A   Clear
4:35 PM 73.4 °F 62.6 °F 69% 30.01 in 10.0 mi NW 15.0 mph 19.6 mph N/A   Clear
4:55 PM 73.4 °F 62.6 °F 69% 30.01 in 10.0 mi WNW 13.8 mph - N/A   Clear
5:15 PM 73.4 °F 62.6 °F 69% 30.01 in 10.0 mi NW 11.5 mph 17.3 mph N/A   Clear
5:35 PM 73.4 °F 62.6 °F 69% 30.01 in 10.0 mi NW 12.7 mph - N/A   Clear
5:55 PM 71.6 °F 62.6 °F 73% 30.01 in 10.0 mi NW 12.7 mph 17.3 mph N/A   Clear
6:15 PM 71.6 °F 62.6 °F 73% 30.00 in 10.0 mi NW 12.7 mph - N/A   Clear
6:35 PM 69.8 °F 62.6 °F 78% 30.00 in 10.0 mi NW 10.4 mph - N/A   Clear
6:55 PM 69.8 °F 62.6 °F 78% 30.00 in 10.0 mi NW 11.5 mph - N/A   Clear
7:15 PM 68.0 °F 62.6 °F 83% 30.00 in 10.0 mi NW 10.4 mph - N/A   Clear
7:35 PM 66.2 °F 62.6 °F 88% 30.01 in 10.0 mi NW 9.2 mph - N/A   Scattered Clouds
7:55 PM 66.2 °F 60.8 °F 83% 30.01 in 10.0 mi NW 6.9 mph - N/A   Mostly Cloudy
8:15 PM 64.4 °F 62.6 °F 94% 30.01 in 10.0 mi WNW 6.9 mph - N/A   Mostly Cloudy
8:35 PM 62.6 °F 60.8 °F 94% 30.00 in 10.0 mi WNW 6.9 mph - N/A   Partly Cloudy
8:55 PM 62.6 °F 60.8 °F 94% 30.00 in 10.0 mi WNW 4.6 mph - N/A   Clear
9:15 PM 62.6 °F 60.8 °F 94% 30.00 in 10.0 mi West 5.8 mph - N/A   Mostly Cloudy
9:35 PM 62.6 °F 60.8 °F 94% 30.00 in 10.0 mi West 3.5 mph - N/A   Overcast
9:55 PM 62.6 °F 60.8 °F 94% 30.01 in 10.0 mi WSW 3.5 mph - N/A   Mostly Cloudy
10:15 PM 62.6 °F 60.8 °F 94% 30.00 in 10.0 mi WSW 4.6 mph - N/A   Partly Cloudy
10:35 PM 64.4 °F 62.6 °F 94% 30.01 in 10.0 mi Calm Calm - N/A   Clear
10:55 PM 62.6 °F 60.8 °F 94% 30.00 in 10.0 mi Calm Calm - N/A   Clear
11:15 PM 62.6 °F 59.0 °F 88% 30.00 in 10.0 mi SE 3.5 mph - N/A   Clear
11:35 PM 60.8 °F 59.0 °F 94% 30.00 in 10.0 mi ESE 4.6 mph - N/A   Clear
11:55 PM 62.6 °F 59.0 °F 88% 30.00 in 10.0 mi Calm Calm - N/A   Clear